Weather History for KAUM - April, 2014

Change the Weather History Date:

Thursday, April 10, 2014

  Actual Average Record
Temperature  
Mean Temperature 49 °F -  
Max Temperature 57 °F 51 °F 80 °F (2011)
Min Temperature 41 °F 32 °F 26 °F (1997)
Degree Days  
Heating Degree Days 16    
Moisture  
Dew Point 32 °F    
Average Humidity 52    
Maximum Humidity 81    
Minimum Humidity 27    
Precipitation  
Precipitation 0.00 in - - ()
Sea Level Pressure  
Sea Level Pressure 29.80 in    
Wind  
Wind Speed 10 mph (NW)    
Max Wind Speed 28 mph    
Max Gust Speed 37 mph    
Visibility 10 miles    
Events      
Averages and records for this station are not official NWS values.
T = Trace of Precipitation, MM = Missing Value Source: NWS Daily Summary

Daily Weather History Graph

Daily Weather History Graph

Search for Another Location

Airport or City:

Trip Planner

Search our weather history database for the weather conditions in past years. The results will help you decide how hot, cold, wet, or windy it might be!

Date:

Astronomy

Apr. 10, 2014 Rise Set
Actual Time 6:37 AM CDT 7:49 PM CDT
Civil Twilight 6:07 AM CDT 8:18 PM CDT
Nautical Twilight 5:32 AM CDT 8:54 PM CDT
Astronomical Twilight 4:55 AM CDT 9:31 PM CDT
Moon 3:26 PM CDT (4/10) 4:08 AM CDT (4/10)
Length of Visible Light 14h 10m
Length of Day
13h 11m
Waxing Gibbous, 80% of the Moon is Illuminated
Apr 10
Waxing Gibbous
Apr 15
Full
Apr 22
Last Quarter
Apr 29
New
May 6
First Quarter

Hourly Weather History & Observations

Time (CDT) Temp. Windchill Dew Point Humidity Pressure Visibility Wind Dir Wind Speed Gust Speed Precip Events Conditions
12:15 AM 53.6 °F - 37.4 °F 54% 29.58 in 10.0 mi SSW 9.2 mph - N/A   Clear
12:35 AM 51.8 °F - 37.4 °F 58% 29.58 in 10.0 mi SSW 8.1 mph - N/A   Clear
12:55 AM 51.8 °F - 37.4 °F 58% 29.57 in 10.0 mi SSW 8.1 mph - N/A   Clear
1:15 AM 51.8 °F - 37.4 °F 58% 29.57 in 10.0 mi South 8.1 mph - N/A   Clear
1:35 AM 53.6 °F - 37.4 °F 54% 29.62 in 10.0 mi SW 8.1 mph 29.9 mph N/A   Clear
1:55 AM 53.6 °F - 37.4 °F 54% 29.61 in 10.0 mi West 5.8 mph - N/A   Clear
2:15 AM 55.4 °F - 37.4 °F 51% 29.62 in 10.0 mi West 10.4 mph 17.3 mph N/A   Clear
2:35 AM 53.6 °F - 37.4 °F 54% 29.61 in 10.0 mi West 8.1 mph - N/A   Clear
2:55 AM 53.6 °F - 37.4 °F 54% 29.63 in 10.0 mi West 9.2 mph - N/A   Clear
3:15 AM 51.8 °F - 39.2 °F 62% 29.63 in 10.0 mi NW 10.4 mph - N/A   Clear
3:35 AM 51.8 °F - 39.2 °F 62% 29.65 in 10.0 mi WNW 10.4 mph 16.1 mph N/A   Clear
3:56 AM 50.0 °F - 41.0 °F 71% 29.65 in 10.0 mi NW 11.5 mph - N/A   Clear
4:15 AM 50.0 °F - 41.0 °F 71% 29.65 in 10.0 mi NW 8.1 mph 18.4 mph N/A   Clear
4:35 AM 48.2 °F - 41.0 °F 76% 29.66 in 10.0 mi NW 12.7 mph - N/A   Clear
4:56 AM 46.4 °F 41.1 °F 39.2 °F 76% 29.68 in 10.0 mi NW 11.5 mph - N/A   Clear
5:15 AM 46.4 °F 41.1 °F 39.2 °F 76% 29.68 in 10.0 mi NW 11.5 mph - N/A   Clear
5:35 AM 46.4 °F 41.9 °F 39.2 °F 76% 29.69 in 10.0 mi NW 9.2 mph - N/A   Clear
5:55 AM 44.6 °F 40.2 °F 39.2 °F 81% 29.70 in 10.0 mi NW 8.1 mph - N/A   Clear
6:15 AM 44.6 °F 39.7 °F 39.2 °F 81% 29.71 in 10.0 mi NW 9.2 mph - N/A   Clear
6:35 AM 44.6 °F 40.7 °F 39.2 °F 81% 29.71 in 10.0 mi NW 6.9 mph - N/A   Clear
6:55 AM 44.6 °F 40.7 °F 37.4 °F 76% 29.71 in 10.0 mi NW 6.9 mph - N/A   Clear
7:15 AM 44.6 °F 39.2 °F 37.4 °F 76% 29.73 in 10.0 mi NW 10.4 mph - N/A   Scattered Clouds
7:35 AM 44.6 °F 39.7 °F 37.4 °F 76% 29.74 in 10.0 mi NW 9.2 mph - N/A   Scattered Clouds
7:55 AM 44.6 °F 39.7 °F 35.6 °F 71% 29.76 in 10.0 mi WNW 9.2 mph - N/A   Mostly Cloudy
8:15 AM 44.6 °F 39.2 °F 35.6 °F 71% 29.79 in 10.0 mi WNW 10.4 mph 16.1 mph N/A   Mostly Cloudy
8:35 AM 44.6 °F 39.7 °F 33.8 °F 66% 29.79 in 10.0 mi NW 9.2 mph 18.4 mph N/A   Scattered Clouds
8:55 AM 44.6 °F 38.8 °F 33.8 °F 66% 29.79 in 10.0 mi NW 11.5 mph - N/A   Clear
9:15 AM 48.2 °F - 35.6 °F 62% 29.79 in 10.0 mi NW 11.5 mph 17.3 mph N/A   Clear
9:35 AM 48.2 °F - 33.8 °F 58% 29.80 in 10.0 mi NW 11.5 mph 17.3 mph N/A   Clear
9:55 AM 50.0 °F - 33.8 °F 54% 29.81 in 10.0 mi NW 16.1 mph - N/A   Clear
10:15 AM 51.8 °F - 30.2 °F 44% 29.82 in 10.0 mi NW 16.1 mph 19.6 mph N/A   Clear
10:35 AM 51.8 °F - 28.4 °F 41% 29.82 in 10.0 mi NW 11.5 mph 20.7 mph N/A   Clear
10:55 AM 53.6 °F - 28.4 °F 38% 29.83 in 10.0 mi NW 16.1 mph 20.7 mph N/A   Clear
11:15 AM 53.6 °F - 28.4 °F 38% 29.83 in 10.0 mi WNW 12.7 mph 23.0 mph N/A   Clear
11:36 AM 51.8 °F - 30.2 °F 44% 29.84 in 10.0 mi NW 12.7 mph 21.9 mph N/A   Clear
11:55 AM 53.6 °F - 30.2 °F 41% 29.84 in 10.0 mi WNW 15.0 mph 21.9 mph N/A   Clear
12:15 PM 53.6 °F - 28.4 °F 38% 29.84 in 10.0 mi NW 18.4 mph 25.3 mph N/A   Clear
12:35 PM 55.4 °F - 28.4 °F 36% 29.85 in 10.0 mi NW 17.3 mph 25.3 mph N/A   Clear
12:55 PM 55.4 °F - 26.6 °F 33% 29.85 in 10.0 mi NW 18.4 mph 27.6 mph N/A   Clear
1:15 PM 55.4 °F - 26.6 °F 33% 29.85 in 10.0 mi WNW 19.6 mph 32.2 mph N/A   Clear
1:35 PM 57.2 °F - 26.6 °F 31% 29.85 in 10.0 mi NW 21.9 mph 31.1 mph N/A   Clear
1:55 PM 57.2 °F - 23.0 °F 27% 29.85 in 10.0 mi NW 23.0 mph 35.7 mph N/A   Clear
2:15 PM 57.2 °F - 24.8 °F 29% 29.85 in 10.0 mi WNW 27.6 mph 36.8 mph N/A   Clear
2:35 PM 57.2 °F - 26.6 °F 31% 29.86 in 10.0 mi NW 23.0 mph 34.5 mph N/A   Clear
2:55 PM 57.2 °F - 26.6 °F 31% 29.86 in 10.0 mi NW 21.9 mph 29.9 mph N/A   Clear
3:15 PM 57.2 °F - 28.4 °F 33% 29.86 in 10.0 mi NW 16.1 mph 29.9 mph N/A   Clear
3:35 PM 57.2 °F - 26.6 °F 31% 29.86 in 10.0 mi NW 23.0 mph 29.9 mph N/A   Clear
3:55 PM 57.2 °F - 28.4 °F 33% 29.86 in 10.0 mi NW 16.1 mph 24.2 mph N/A   Clear
4:15 PM 57.2 °F - 26.6 °F 31% 29.86 in 10.0 mi NW 20.7 mph 31.1 mph N/A   Clear
4:35 PM 57.2 °F - 26.6 °F 31% 29.87 in 10.0 mi NW 18.4 mph 29.9 mph N/A   Clear
4:55 PM 57.2 °F - 26.6 °F 31% 29.87 in 10.0 mi NW 18.4 mph 25.3 mph N/A   Clear
5:15 PM 57.2 °F - 26.6 °F 31% 29.87 in 10.0 mi NW 15.0 mph 23.0 mph N/A   Clear
5:35 PM 57.2 °F - 26.6 °F 31% 29.88 in 10.0 mi NW 18.4 mph 23.0 mph N/A   Clear
5:55 PM 57.2 °F - 24.8 °F 29% 29.89 in 10.0 mi NW 13.8 mph 20.7 mph N/A   Clear
6:15 PM 55.4 °F - 26.6 °F 33% 29.89 in 10.0 mi NW 15.0 mph 20.7 mph N/A   Clear
6:35 PM 55.4 °F - 24.8 °F 31% 29.90 in 10.0 mi NW 15.0 mph - N/A   Clear
6:55 PM 55.4 °F - 26.6 °F 33% 29.90 in 10.0 mi NW 9.2 mph - N/A   Clear
7:15 PM 53.6 °F - 26.6 °F 35% 29.90 in 10.0 mi NW 9.2 mph - N/A   Clear
7:35 PM 51.8 °F - 28.4 °F 41% 29.91 in 10.0 mi NW 5.8 mph - N/A   Clear
7:55 PM 51.8 °F - 28.4 °F 41% 29.91 in 10.0 mi NW 3.5 mph - N/A   Clear
8:15 PM 50.0 °F - 28.4 °F 43% 29.91 in 10.0 mi WNW 3.5 mph - N/A   Clear
8:35 PM 48.2 °F - 28.4 °F 46% 29.93 in 10.0 mi Calm Calm - N/A   Clear
8:55 PM 48.2 °F - 28.4 °F 46% 29.94 in 10.0 mi Calm Calm - N/A   Clear
9:15 PM 46.4 °F - 30.2 °F 53% 29.95 in 10.0 mi Calm Calm - N/A   Clear
9:35 PM 44.6 °F - 30.2 °F 57% 29.96 in 10.0 mi Calm Calm - N/A   Clear
9:55 PM 44.6 °F 43.1 °F 30.2 °F 57% 29.97 in 10.0 mi SW 3.5 mph - N/A   Clear
10:15 PM 42.8 °F - 30.2 °F 61% 29.97 in 10.0 mi Calm Calm - N/A   Clear
10:35 PM 42.8 °F - 33.8 °F 70% 29.97 in 10.0 mi Calm Calm - N/A   Clear
10:55 PM 44.6 °F - 33.8 °F 66% 29.97 in 10.0 mi Calm Calm - N/A   Clear
11:15 PM 42.8 °F - 32.0 °F 66% 29.97 in 10.0 mi Calm Calm - N/A   Clear
11:35 PM 41.0 °F - 32.0 °F 70% 29.97 in 10.0 mi Calm Calm - N/A   Clear
11:55 PM 42.8 °F - 32.0 °F 66% 29.97 in 10.0 mi Calm Calm - N/A   Clear